Weather History for KBYI - February, 2013

Change the Weather History Date:

Sunday, February 24, 2013

  Actual Average Record
Temperature  
Mean Temperature 28 °F 33 °F  
Max Temperature 36 °F 43 °F 72 °F (1995)
Min Temperature 20 °F 24 °F 5 °F (1952)
Degree Days  
Heating Degree Days 37 32  
Month to date heating degree days 782 833  
Since 1 July heating degree days 4627 4899  
Cooling Degree Days 0 0  
Month to date cooling degree days 0 0  
Year to date cooling degree days 0 0  
Moisture  
Dew Point 20 °F    
Average Humidity 76    
Maximum Humidity 96    
Minimum Humidity 56    
Precipitation  
Precipitation 0.00 in 0.03 in 0.29 in (1972)
Month to date precipitation 0.19 0.65  
Year to date precipitation 0.36 1.56  
Sea Level Pressure  
Sea Level Pressure 30.25 in    
Wind  
Wind Speed 10 mph (WSW)    
Max Wind Speed 22 mph    
Max Gust Speed 26 mph    
Visibility 10 miles    
Events      
T = Trace of Precipitation, MM = Missing Value Source: NWS Daily Summary

Daily Weather History Graph

Daily Weather History Graph

Search for Another Location

Airport or City:

Trip Planner

Search our weather history database for the weather conditions in past years. The results will help you decide how hot, cold, wet, or windy it might be!

Date:

Astronomy

Feb. 24, 2013 Rise Set
Actual Time 7:18 AM MST 6:19 PM MST
Civil Twilight 6:49 AM MST 6:47 PM MST
Nautical Twilight 6:16 AM MST 7:20 PM MST
Astronomical Twilight 5:44 AM MST 7:52 PM MST
Moon 5:34 PM MST (2/24) 6:17 AM MST (2/24)
Length of Visible Light 11h 57m
Length of Day
11h 01m
Waxing Gibbous, 99% of the Moon is Illuminated
Feb 24
Waxing Gibbous
Feb 25
Full
Mar 4
Last Quarter
Mar 11
New
Mar 19
First Quarter

Hourly Weather History & Observations

Time (MST) Temp. Windchill Dew Point Humidity Pressure Visibility Wind Dir Wind Speed Gust Speed Precip Events Conditions
12:53 AM 21.9 °F 17.2 °F 18.0 °F 85% 30.14 in 10.0 mi West 3.5 mph - N/A   Clear
1:53 AM 19.9 °F 13.4 °F 18.0 °F 92% 30.14 in 10.0 mi West 4.6 mph - N/A   Clear
2:53 AM 21.0 °F 16.2 °F 18.0 °F 88% 30.16 in 10.0 mi SW 3.5 mph - N/A   Clear
3:53 AM 21.0 °F 13.4 °F 19.0 °F 92% 30.17 in 10.0 mi WSW 5.8 mph - N/A   Clear
4:14 AM 21.2 °F 16.4 °F 19.4 °F 93% 30.10 in 10.0 mi SW 3.5 mph - N/A   Partly Cloudy
4:30 AM 21.2 °F 13.6 °F 19.4 °F 93% 30.10 in 10.0 mi SW 5.8 mph - N/A   Mostly Cloudy
4:53 AM 23.0 °F 18.4 °F 21.0 °F 92% 30.19 in 10.0 mi West 3.5 mph - N/A   Overcast
5:53 AM 23.0 °F 12.4 °F 21.0 °F 92% 30.22 in 10.0 mi West 10.4 mph 16.1 mph N/A   Overcast
6:53 AM 23.0 °F 14.7 °F 21.0 °F 92% 30.25 in 10.0 mi WSW 6.9 mph - N/A   Overcast
7:53 AM 24.1 °F 14.4 °F 21.0 °F 88% 30.28 in 10.0 mi WSW 9.2 mph - N/A   Overcast
8:53 AM 24.1 °F 14.4 °F 21.0 °F 88% 30.30 in 10.0 mi WSW 9.2 mph - N/A   Overcast
9:53 AM 25.0 °F 16.3 °F 21.0 °F 85% 30.32 in 10.0 mi West 8.1 mph 18.4 mph N/A   Overcast
10:31 AM 26.6 °F 16.8 °F 21.2 °F 80% 30.23 in 10.0 mi WSW 10.4 mph 20.7 mph N/A   Mostly Cloudy
10:53 AM 27.0 °F 15.2 °F 21.0 °F 78% 30.32 in 10.0 mi WSW 15.0 mph - N/A   Mostly Cloudy
11:02 AM 28.4 °F 16.2 °F 21.2 °F 74% 30.23 in 10.0 mi WSW 17.3 mph - N/A   Scattered Clouds
11:34 AM 30.2 °F 19.3 °F 21.2 °F 69% 30.23 in 10.0 mi WSW 15.0 mph 21.9 mph N/A   Mostly Cloudy
11:45 AM 28.4 °F 16.6 °F 19.4 °F 69% 30.23 in 10.0 mi WSW 16.1 mph 20.7 mph N/A   Scattered Clouds
11:53 AM 30.0 °F 20.0 °F 21.0 °F 69% 30.32 in 10.0 mi West 12.7 mph 20.7 mph N/A   Scattered Clouds
12:53 PM 35.1 °F 25.9 °F 23.0 °F 61% 30.30 in 10.0 mi WSW 13.8 mph 23.0 mph N/A   Scattered Clouds
1:02 PM 33.8 °F 23.9 °F 21.2 °F 60% 30.22 in 10.0 mi West 15.0 mph 21.9 mph N/A   Mostly Cloudy
1:11 PM 30.2 °F 19.8 °F 19.4 °F 64% 30.22 in 10.0 mi West 13.8 mph 21.9 mph N/A   Scattered Clouds
1:53 PM 35.1 °F 25.9 °F 21.9 °F 59% 30.30 in 10.0 mi West 13.8 mph 24.2 mph N/A   Scattered Clouds
2:53 PM 34.0 °F 23.4 °F 19.0 °F 54% 30.29 in 10.0 mi West 17.3 mph 24.2 mph N/A   Clear
3:53 PM 35.1 °F 25.5 °F 21.0 °F 57% 30.30 in 10.0 mi WSW 15.0 mph 21.9 mph N/A   Scattered Clouds
4:53 PM 34.0 °F 23.4 °F 19.9 °F 56% 30.29 in 10.0 mi WSW 17.3 mph 23.0 mph N/A   Clear
5:53 PM 32.0 °F 22.5 °F 19.9 °F 61% 30.29 in 10.0 mi WSW 12.7 mph - N/A   Clear
6:53 PM 30.0 °F 22.4 °F 19.9 °F 66% 30.30 in 10.0 mi SW 8.1 mph - N/A   Clear
7:53 PM 27.0 °F 18.7 °F 19.9 °F 75% 30.31 in 10.0 mi SSW 8.1 mph - N/A   Clear
8:53 PM 27.0 °F 18.7 °F 19.0 °F 72% 30.31 in 10.0 mi SSW 8.1 mph - N/A   Clear
9:53 PM 26.1 °F 16.8 °F 19.0 °F 75% 30.31 in 10.0 mi SW 9.2 mph - N/A   Clear
10:53 PM 27.0 °F 16.1 °F 17.1 °F 66% 30.30 in 10.0 mi SSW 12.7 mph - N/A   Clear
11:53 PM 26.1 °F 13.6 °F 17.1 °F 69% 30.28 in 10.0 mi SSW 16.1 mph - N/A   Clear